Showing default

BRISAT, 41591

Orbit data source: Space-Track

BRISAT, 41591 is a payload satellite owned by Bank Rakyat Id. (ID) in GEO that was launched on Sat, 18 Jun 2016 UTC via an ARIANE 5ECA launch vehicle from the French Guiana (FRGUI). Payload-class satellites include a variety of spacecraft equipped with specific instruments for various scientific and technological missions. These include communications satellites like Starlink; space stations such as the ISS; scientific satellites like the Hubble; Earth observation satellites from companies like Planet Labs, Umbra, and HawkEye 360; GPS; miniature CubeSats for education and research; and military/defense satellites.

Not visible in the next 10 days
Identifier
41591, 2016-039A
Orbit
GEO
Country
Flag of IDID / INDO
Related business
Manufacturer
SS/Loral (MDA)
Mission
Operational Commercial Communications
Bus & Motor
SSL-1300, R-4D
Mass
3,540 kg wet, ~2,000 kg dry
Launch date (UTC)
2016-06-18 (10 years ago)
Launch vehicle
ARIANE 5ECA
Launch site
French Guiana (FRGUI)
Object type
Payload
Rocket body
Debris
Shape & HBR
Box + 2 Pan + 1 Dish, 15.5 m
Radar Cross Section
33.485 m², Large (>1 m²)

Expand to show TLE details & history
Last TLE update: 12 hours ago

TLE from 12 hours ago
0 BRISAT
1 41591U 16039A   26125.86433514 -.00000188  00000-0  00000-0 0  9997
2 41591   0.0151 273.7546 0002287 131.8230 279.8214  1.00271334 36182
Epoch: 2026-05-05T20:44Z
TLE epoch observation values (Epoch: 2026-05-05T20:44:38.556Z)
Latitude
0.0278°
Longitude
150.47254°
Altitude
35,784.563 km
Speed
3.075 km/s
True Right ascension
21h 41m 27s
True Declination
0° 01' 40"
Sunlit
Object was in daylight at epoch
Visualization orbit readout
Latitude
Unknown
Longitude
Unknown
Altitude
Unknown
Speed
Unknown
Apparent Right ascension
Unknown
Apparent Declination
Unknown
Sunlit
N/A
Visualization observer readout
Local Sidereal Time
16:34:23
Azimuth
Unknown
Elevation
Unknown
Doppler factor
Unknown
Orbital elements
Apogee altitude
35,797.435 km
Perigee altitude
35,778.148 km
Semi-major axis
42,165.929 km
Eccentricity
0.00023
Inclination
0.0151°
RAAN
273.7546°
Arg. of periapsis
131.823°
True anomaly
279.79558°
Mean anomaly
279.8214°
Eccentric anomaly
279.80849°
Mean motion
0.25067 °/min
Orbital period
1,436.16 mins
BSTAR
0
Loading maneuver chart data...
Computing Atmospheric mass density...
Loading historical data...
Loading historical data...
Loading historical data...
Loading historical data...
Loading historical data...
Loading historical data...
Loading historical data...
Other satellites on launch #39 in the year 2016 (2016-06-18 UTC)

Documentation

Showing up to 5 results
|